| time (UTC) | temp C | wind direction | speed KPH | gust KPH | rain 1hr cm | rain 24hr cm | rain mn cm | humidity % | barometer mb |
| 20260504214652 | 12 | 74 | 0.0 | 1.6 | 0.00 | 0.30 | 0.30 | 92 | 1013.3 |
| 20260504213149 | 12 | 35 | 0.0 | 0.0 | 0.00 | 0.30 | 0.30 | 92 | 1013.2 |
| 20260504211649 | 12 | 35 | 0.0 | 4.8 | 0.00 | 0.30 | 0.30 | 92 | 1013.2 |
| 20260504204650 | 13 | 360 | 0.0 | 0.0 | 0.03 | 0.30 | 0.30 | 91 | 1013.4 |
| 20260504203138 | 13 | 360 | 0.0 | 1.6 | 0.05 | 0.30 | 0.30 | 90 | 1013.5 |
| 20260504201652 | 13 | 350 | 0.0 | 0.0 | 0.05 | 0.30 | 0.30 | 89 | 1013.7 |
| 20260504194652 | 14 | 44 | 6.4 | 17.7 | 0.15 | 0.28 | 0.28 | 85 | 1013.5 |
| 20260504193155 | 15 | 22 | 0.0 | 12.9 | 0.13 | 0.25 | 0.25 | 82 | 1013.2 |
| 20260504191651 | 16 | 271 | 9.7 | 27.4 | 0.13 | 0.25 | 0.25 | 75 | 1012.9 |
| 20260504190146 | 16 | 254 | 8.0 | 40.2 | 0.10 | 0.23 | 0.23 | 78 | 1012.7 |
| 20260504184650 | 17 | 140 | 0.0 | 1.6 | 0.00 | 0.15 | 0.15 | 87 | 1012.1 |
| 20260504183136 | 17 | 140 | 0.0 | 8.0 | 0.00 | 0.15 | 0.15 | 85 | 1012.0 |
| 20260504181651 | 16 | 163 | 0.0 | 3.2 | 0.00 | 0.15 | 0.15 | 88 | 1011.7 |
| 20260504180149 | 17 | 18 | 0.0 | 6.4 | 0.00 | 0.15 | 0.15 | 87 | 1011.5 |
| 20260504174651 | 17 | 37 | 0.0 | 3.2 | 0.00 | 0.15 | 0.15 | 86 | 1011.4 |
| 20260504173156 | 17 | 155 | 0.0 | 1.6 | 0.00 | 0.15 | 0.15 | 84 | 1011.5 |
| 20260504171650 | 17 | 155 | 0.0 | 0.0 | 0.00 | 0.15 | 0.15 | 82 | 1011.8 |
| 20260504160147 | 18 | 107 | 0.0 | 9.7 | 0.00 | 0.15 | 0.15 | 84 | 1012.0 |
| 20260504140149 | 15 | 119 | 0.0 | 6.4 | 0.13 | 0.13 | 0.13 | 86 | 1013.0 |
| 20260504100149 | 20 | 360 | 0.0 | 8.0 | 0.00 | 0.00 | 0.00 | 67 | 1013.2 |
| 20260504081652 | 17 | 15 | 0.0 | 6.4 | 0.00 | 0.00 | 0.00 | 81 | 1014.2 |
| 20260504080148 | 16 | 28 | 1.6 | 8.0 | 0.00 | 0.00 | 0.00 | 83 | 1014.3 |
| 20260504060147 | 14 | 355 | 1.6 | 9.7 | 0.00 | 0.00 | 0.00 | 89 | 1014.5 |
| 20260504044652 | 13 | 26 | 0.0 | 1.6 | 0.00 | 0.00 | 0.00 | 91 | 1014.7 |
| 20260504043156 | 13 | 26 | 0.0 | 0.0 | 0.00 | 0.00 | 0.00 | 91 | 1014.9 |
| 20260504041651 | 13 | 26 | 0.0 | 0.0 | 0.00 | 0.00 | 0.00 | 90 | 1014.8 |
| 20260504034651 | 14 | 26 | 0.0 | 0.0 | 0.00 | 0.00 | 0.00 | 89 | 1014.7 |
| 20260504033155 | 14 | 26 | 0.0 | 3.2 | 0.00 | 0.00 | 0.00 | 88 | 1014.8 |
| 20260504031651 | 14 | 278 | 0.0 | 3.2 | 0.00 | 0.00 | 0.00 | 88 | 1014.7 |
| 20260504024652 | 14 | 292 | 0.0 | 4.8 | 0.00 | 0.00 | 0.00 | 88 | 1014.9 |
| 20260504023140 | 14 | 17 | 0.0 | 0.0 | 0.00 | 0.00 | 0.00 | 89 | 1014.9 |
| 20260504021650 | 14 | 17 | 0.0 | 0.0 | 0.00 | 0.00 | 0.00 | 89 | 1014.9 |
| 20260504020150 | 14 | 17 | 0.0 | 0.0 | 0.00 | 0.00 | 0.00 | 89 | 1014.9 |
| 20260504014650 | 15 | 17 | 0.0 | 0.0 | 0.00 | 0.00 | 0.00 | 88 | 1015.1 |
| 20260504013200 | 14 | 17 | 0.0 | 0.0 | 0.00 | 0.00 | 0.00 | 90 | 1015.1 |
| 20260504011650 | 14 | 17 | 0.0 | 0.0 | 0.00 | 0.00 | 0.00 | 90 | 1015.3 |
| 20260504010146 | 15 | 17 | 0.0 | 0.0 | 0.00 | 0.00 | 0.00 | 89 | 1015.4 |
| 20260504004651 | 15 | 17 | 0.0 | 0.0 | 0.00 | 0.00 | 0.00 | 89 | 1015.5 |
| 20260504003157 | 15 | 17 | 0.0 | 0.0 | 0.00 | 0.00 | 0.00 | 89 | 1015.5 |
| 20260504001652 | 15 | 101 | 0.0 | 0.0 | 0.00 | 0.00 | 0.00 | 88 | 1015.6 |
| 20260503234651 | 15 | 196 | 0.0 | 0.0 | 0.00 | 0.00 | 0.00 | 89 | 1015.6 |
| 20260503233156 | 15 | 196 | 0.0 | 0.0 | 0.00 | 0.00 | 0.00 | 88 | 1015.7 |
| 20260503231650 | 15 | 196 | 0.0 | 0.0 | 0.00 | 0.00 | 0.00 | 87 | 1015.7 |
| 20260503230151 | 15 | 196 | 0.0 | 0.0 | 0.00 | 0.00 | 0.00 | 87 | 1015.7 |
| 20260503224502 | 15 | 196 | 0.0 | 0.0 | 0.00 | 0.00 | 0.00 | 87 | 1015.7 |
| 20260503223156 | 15 | 196 | 0.0 | 1.6 | 0.00 | 0.00 | 0.00 | 87 | 1015.6 |
| 20260503221653 | 15 | 163 | 0.0 | 3.2 | 0.00 | 0.00 | 0.00 | 87 | 1015.8 |